Погода в Коксовом

Россия / Ростовская область     48°11′53″N   40°38′53″E
темп.,
°C
ветер,
м/с
пор.,
м/с
влажн.,
%
обл.,
%
осадки,
мм/ч
давл.,
гПа
погр.,
м
10 апреля, сб
сб1000:00+5с4874100 0.0 1022364
03:00+5с51264100 0.0 1021527
06:00+4с51164100 0.0 1021444
09:00+7ссв71055100 0.0 1021697
12:00+9с6854100 0.1 1021867
15:00+9ссв6964100 0.1 1021852
18:00+9с51072100 0.1 1021678
21:00+7ссв387997 0.1 1022323
11 апреля, вс
вс1100:00+6ссв498492 0.0 1022378
03:00+6ссв4118699 0.0 1022485
06:00+5ссв61290100 0.0 1022586
09:00+6ссв5889100 0.0 1023518
12:00+7св5788100 0.0 1022570
15:00+9ссв5682100 0.0 1022640
18:00+10ссв3683100 0.0 1022285
21:00+8с3892100 0.0 1021152
12 апреля, пн
пн1200:00+8ссв31193100 0.0 1019204
03:00+9св378999 0.0 1019121
06:00+9в3681100 0.0 101992
09:00+13в5106199 0.0 1020342
12:00+17вюв71148100 0.0 1020828
15:00+16вюв71162100 0.0 1021904
18:00+15вюв486799 0.0 1021247
21:00+13вюв81583100 1.1 1023638
13 апреля, вт
вт1300:00+12в51380100 0.2 1022434
03:00+11в41182100 0.2 1021270
06:00+10в35885 0.0 102177
09:00+12вюв387490 0.0 1021317
12:00+13юв4870100 0.1 1021445
15:00+12юв1575100 0.5 1021189
18:00+12ююв2679100 0.0 1021247
21:00+11юз11819 0.0 102111
14 апреля, ср
ср1400:00+10в008887 0.0 102210
03:00+10ссз119093 0.0 102110
06:00+9юв119096 0.0 102110
09:00+14вюв347385 0.0 1021406
12:00+18вюв464982 0.0 10191342
15:00+19вюв4533100 0.0 10181277
18:00+17в2248100 0.0 101730
21:00+14всв115292 0.0 101611